FENGYUN 1C DEB

Satellite information

Favourite Embed

Satellite Type and Status

DEBRISIN ORBIT

Key statistics

Satellite FENGYUN 1C DEB at a glance.

Uptime

9494

Days in orbit

Revolutions

≈ 14.4

Per day

Orbit

SSO

Sun Synchronous Orbit

Inclination

98.6

Latest

Satellite identification and parameters

Extended collection of information and parameters for FENGYUN 1C DEB.

Object identification

Identified? True

Debris? True

Object name: FENGYUN 1C DEB

International designator: 1999-025CEJ

Object number (NORAD): 31735

Object ID (CCSDS): 31735

Country: PEOPLES REPUBLIC OF CHINA (PRC)

Current information (Y/N): Y

RCS size: SMALL

Orbital parameters

Period: 99.916 minutes

Inclination: 98.5709 deg

SMA: 7132.634 km

Apoapsis: 798.041 km

Periapsis: 710.957 km

RAAN: 226.8325 deg

Eccentricy: 0.0061046

Argument of periapsis: 229.5916 deg

Mean anomaly: 129.9937 deg

Mean motion: 14.4121201 rev/day

Mean motion (dot): 0.00003236 rev/day2

B* drag term: 0.00099402 1/REarth

Two-line elements (TLE)

Creation date: May 4, 2025, 5:21 p.m.

Reference frame: TEME

Reference center: EARTH

Epoch: May 4, 2025, 11:52 a.m. UTC

TLE line 0: 0 FENGYUN 1C DEB

TLE line 1: 1 31735U 99025CEJ 25124.49503867 .00003236 00000-0 99402-3 0 9991

TLE line 2: 2 31735 98.5709 226.8325 0061046 229.5916 129.9937 14.41212010934628

Live tracking on map

Real-time ground track for satellite FENGYUN 1C DEB.

In-orbit conjunctions

A list of the most updated potential collisions computed for object FENGYUN 1C DEB.

Target Orbit TCA Probability of collision Miss distance Type
PICOSAT 6 SSO 2025-02-28 20:20:51 0.000341705 221.0 (m) PAYLOAD
CZ-6A DEB LEO 2025-02-12 06:40:24 0.01105492 32.0 (m) DEBRIS
CZ-6A DEB LEO 2025-02-03 15:34:22 0.000115983 320.0 (m) DEBRIS
METEOR 2-7 DEB LEO 2024-11-16 10:21:02 0.0003259068 324.0 (m) DEBRIS

Associated space launch

Chinese polar orbiting meteorological satellite

FENGYUN 1C DEB was lifted into orbit during the mission ‘Long March 4B | Feng Yun 1C’, on board a Long March 4B space rocket.

The launch took place on May 10, 1999, 1:33 a.m. from Launch Complex 7.

For more information about the launch, click the button.

Launch to space Long March 4B | Feng Yun 1C
Long March 4B | Feng Yun 1C

Agency: N/A

Status: Launch Successful

Launch date: May 10, 1999, 1:33 a.m. UTC

Rocket: Long March 4B

Launch pad: Launch Complex 7

Location: Taiyuan Satellite Launch Center, People's Republic of China

...

Latest news about this satellite

There are no fresh news available about this satellite. Check back as we update our databases every day.


Newsletter sign-up

Weekly statistics, charts and insights to help you stay on top of the space industry.